Find Kosmos-1324

NORAD ID: 12979 Int'l Des: 1981-116 Owner: GUKOS Country: SU operational
LEOCIRCULAR

当前视图

正在加载3D地球...

关于 Kosmos-1324

正在加载描述...

即将过境

Passes for default location (London). Set your location on the main map for personalized predictions.

高度历史

Loading altitude history...

两行轨道根数

1 12979U 81116E 26150.05210647 .00000006 00000-0 18527-3 0 9996
2 12979 73.9842 16.8910 0087792 229.0690 283.6489 12.29739703997692
Epoch: May 30, 2026 • Age: 16 hours

当前状态

高度 1496.3 km
速度 7.14 km/s
星下点 -17.40°S, 56.2°E
发射日期 Nov 28, 1981
运行时间 44.5 years
类型 other

技术详情

分类 Payload
质量 60.00 kg
干质量 60.00 kg
总质量 60.00 kg
长度 0.80 m
直径 0.80 m
跨度 0.80 m
形状 Poly
制造商 NPOPM
平台类型 Strela-1 11F625
阶段状态 In Orbit
所有者/国家 GUKOS/SU

Most Searched